Location: Caltech
(34.1382°N, 118.1253°W)
Time: 23:50:13
(UTC-07:00)

Tiros 1 despin weight - Visible Passes

Search period start: 24 April 2018 00:00
Search period end: 04 May 2018 00:00
Orbit: 595 x 643 km, 48.2° (Epoch: 24 April)

Date Brightness Start Highest point End Pass type
(mag) Time Alt. Az. Time Alt. Az. Time Alt. Az.
24 Apr ? 21:22:34 10° NW 21:25:07 15° N 21:27:43 10° NNE visible
24 Apr ? 23:05:33 10° NNW 23:06:57 14° N 23:06:57 14° N visible
25 Apr ? 19:56:06 10° WNW 19:59:41 24° NNW 20:03:17 10° NNE visible
25 Apr ? 21:40:22 10° NNW 21:42:31 13° N 21:44:41 10° NNE visible
25 Apr ? 23:22:12 10° NNW 23:22:57 13° NNW 23:22:57 13° NNW visible
26 Apr ? 20:14:01 10° NW 20:16:55 17° NNW 20:19:51 10° NNE visible
26 Apr ? 21:57:39 10° NNW 21:59:56 14° N 22:01:51 11° NNE visible
26 Apr ? 23:38:44 10° NW 23:38:55 11° NNW 23:38:55 11° NNW visible
27 Apr ? 20:31:58 10° NW 20:34:17 14° N 20:36:35 10° NNE visible
27 Apr ? 22:14:26 10° NNW 22:17:17 16° NNE 22:17:46 16° NNE visible
28 Apr ? 20:49:34 10° NNW 20:51:41 13° N 20:53:47 10° NNE visible
28 Apr ? 22:31:00 10° NNW 22:33:41 21° N 22:33:41 21° N visible
29 Apr ? 21:06:36 10° NNW 21:09:05 14° N 21:11:33 10° NE visible
29 Apr ? 22:47:32 10° NW 22:49:35 23° NNW 22:49:35 23° NNW visible
30 Apr ? 21:23:15 10° NNW 21:26:23 18° NNE 21:28:26 14° NE visible
30 Apr ? 23:04:09 10° NW 23:05:30 19° NW 23:05:30 19° NW visible
01 May ? 19:58:39 10° NNW 20:00:50 13° N 20:03:00 10° NE visible
01 May ? 21:39:47 10° NNW 21:43:35 27° NNE 21:44:22 25° NE visible
01 May ? 23:20:57 10° WNW 23:21:25 13° WNW 23:21:25 13° WNW visible
02 May ? 20:15:28 10° NNW 20:18:11 16° NNE 20:20:55 10° NE visible
02 May ? 21:56:21 10° NW 22:00:19 44° NNE 22:00:19 44° NNE visible
03 May ? 20:32:02 10° NNW 20:35:27 21° NNE 20:38:53 10° ENE visible
03 May ? 22:13:01 10° NW 22:16:18 49° NW 22:16:18 49° NW visible
